Skagway, AK

2:28 AM AKST on February 22, 2017 (GMT -0900)
Skagway

Weather History for PAGY - August, 2014

Change the Weather History Date:

Tuesday, August 12, 2014

  Actual Average Record
Temperature  
Mean Temperature 60 °F -  
Max Temperature 68 °F 63 °F 83 °F (1990)
Min Temperature 53 °F 49 °F 43 °F (1969)
Degree Days  
Heating Degree Days 6    
Growing Degree Days 10 (Base 50)    
Moisture  
Dew Point 54 °F    
Average Humidity 85    
Maximum Humidity 100    
Minimum Humidity 60    
Precipitation  
Precipitation 0.23 in - - ()
Sea Level Pressure  
Sea Level Pressure 29.81 in    
Wind  
Wind Speed 5 mph (SSW)    
Max Wind Speed 22 mph    
Max Gust Speed 30 mph    
Visibility 5 miles    
Events Fog , Rain    
Averages and records for this station are not official NWS values.
T = Trace of Precipitation, MM = Missing Value Source: NWS Daily Summary

Daily Weather History Graph

Daily Weather History Graph

Search for Another Location

Airport or City:

Trip Planner

Search our weather history database for the weather conditions in past years. The results will help you decide how hot, cold, wet, or windy it might be!

Date:

Astronomy

Aug. 12, 2014 Rise Set
Actual Time 5:11 AM AKDT 8:59 PM AKDT
Civil Twilight 4:19 AM AKDT 9:50 PM AKDT
Nautical Twilight 3:02 AM AKDT 11:06 PM AKDT
Astronomical Twilight 1:38 AM AKDT 12:33 AM AKDT
Moon 9:14 PM AKDT (8/12) 8:27 AM AKDT (8/12)
Length of Visible Light 17h 30m
Length of Day
15h 47m
Waning Gibbous, 94% of the Moon is Illuminated
Aug 12
Waning Gibbous
Aug 17
Last Quarter
Aug 25
New
Sep 2
First Quarter
Sep 8
Full

Hourly Weather History & Observations

Time (AKDT) Temp. Dew Point Humidity Pressure Visibility Wind Dir Wind Speed Gust Speed Precip Events Conditions
12:03 AM 57.0 °F 55.9 °F 96% 29.79 in 5.0 mi Calm Calm - 0.00 in Rain Light Rain
12:12 AM 55.0 °F 55.0 °F 100% 29.79 in 1.2 mi Calm Calm - 0.00 in Rain Light Rain
12:17 AM 55.9 °F 55.0 °F 97% 29.79 in 0.5 mi Calm Calm - 0.00 in Fog , Rain Light Rain
12:27 AM 55.9 °F 55.0 °F 97% 29.78 in 1.5 mi Calm Calm - 0.00 in   Overcast
12:30 AM 55.9 °F 55.0 °F 97% 29.77 in 3.0 mi Calm Calm - 0.00 in   Overcast
12:43 AM 55.9 °F 55.0 °F 97% 29.77 in 1.0 mi Calm Calm - 0.00 in   Overcast
12:50 AM 55.4 °F 55.4 °F 100% 29.77 in 0.8 mi North 3.5 mph - 0.00 in   Overcast
12:55 AM 57.0 °F 55.0 °F 93% 29.77 in 5.0 mi Calm Calm - N/A   Overcast
1:09 AM 55.9 °F 54.0 °F 93% 29.76 in 2.5 mi Calm Calm - N/A   Overcast
1:16 AM 57.0 °F 55.0 °F 93% 29.77 in 3.0 mi Calm Calm - N/A   Overcast
1:19 AM 55.9 °F 55.0 °F 97% 29.76 in 1.8 mi Calm Calm - N/A   Overcast
1:31 AM 55.9 °F 55.0 °F 97% 29.76 in 0.8 mi Calm Calm - 0.00 in Rain Light Rain
1:51 AM 55.4 °F 55.4 °F 100% 29.78 in 1.5 mi South 3.5 mph - 0.04 in Rain Rain
1:53 AM 55.0 °F 54.0 °F 96% 29.78 in 1.8 mi Calm Calm - 0.05 in Rain Rain
1:57 AM 53.1 °F 52.0 °F 96% 29.78 in 1.0 mi SW 4.6 mph - 0.02 in Rain Heavy Rain
2:04 AM 54.0 °F 53.1 °F 97% 29.76 in 0.8 mi Calm Calm - 0.05 in Rain Heavy Rain
2:11 AM 54.0 °F 52.0 °F 93% 29.75 in 1.2 mi Calm Calm - 0.07 in Rain Rain
2:21 AM 55.0 °F 53.1 °F 93% 29.75 in 1.5 mi West 3.5 mph - 0.08 in Rain Light Rain
2:38 AM 55.0 °F 53.1 °F 93% 29.76 in 2.0 mi Calm Calm - 0.11 in Rain Rain
2:44 AM 55.0 °F 54.0 °F 96% 29.76 in 1.8 mi Calm Calm - 0.12 in Rain Light Rain
2:53 AM 54.0 °F 53.1 °F 97% 29.78 in 0.8 mi Calm Calm - 0.17 in Rain Heavy Rain
3:00 AM 55.0 °F 53.1 °F 93% 29.78 in 1.2 mi Variable 4.6 mph - 0.04 in Rain Heavy Rain
3:07 AM 54.0 °F 53.1 °F 97% 29.76 in 1.5 mi Calm Calm - 0.09 in Rain Heavy Rain
3:22 AM 57.9 °F 55.9 °F 93% 29.76 in 3.0 mi North - - 0.14 in Rain Rain
3:40 AM 57.0 °F 55.9 °F 96% 29.76 in 4.0 mi North - - 0.18 in Rain Rain
4:08 AM 62.1 °F 57.9 °F 86% 29.75 in 7.0 mi SSW 20.7 mph 28.8 mph 0.01 in Rain Light Rain
4:53 AM 62.1 °F 55.9 °F 80% 29.76 in 10.0 mi SSW 13.8 mph - 0.01 in   Overcast
5:53 AM 63.0 °F 55.9 °F 78% 29.77 in 10.0 mi South 18.4 mph 23.0 mph N/A   Mostly Cloudy
6:53 AM 64.0 °F 55.0 °F 73% 29.80 in 10.0 mi SSW 17.3 mph 23.0 mph N/A   Overcast
7:53 AM 62.1 °F 53.1 °F 72% 29.83 in 10.0 mi SSW 10.4 mph - N/A   Overcast
9:53 AM 64.0 °F 54.0 °F 70% 29.86 in 10.0 mi SSW 17.3 mph 25.3 mph N/A   Overcast
10:53 AM 66.0 °F 54.0 °F 65% 29.87 in 10.0 mi South 19.6 mph 29.9 mph N/A   Partly Cloudy
11:53 AM 66.9 °F 53.1 °F 61% 29.88 in 10.0 mi South 19.6 mph 26.5 mph N/A   Scattered Clouds
12:53 PM 66.0 °F 53.1 °F 63% 29.88 in 10.0 mi SSW 21.9 mph 27.6 mph N/A   Scattered Clouds
1:53 PM 64.9 °F 51.1 °F 61% 29.88 in 10.0 mi SSW 20.7 mph 28.8 mph N/A   Overcast
2:53 PM 64.9 °F 52.0 °F 63% 29.91 in 10.0 mi SSW 21.9 mph 28.8 mph N/A   Mostly Cloudy
3:53 PM 66.0 °F 52.0 °F 60% 29.90 in 10.0 mi SSW 17.3 mph - N/A   Mostly Cloudy
4:53 PM 64.0 °F 52.0 °F 65% 29.89 in 10.0 mi SSW 19.6 mph 28.8 mph N/A   Clear
5:53 PM 64.9 °F 52.0 °F 63% 29.90 in 10.0 mi SSW 18.4 mph 25.3 mph N/A   Clear
6:53 PM 64.9 °F 52.0 °F 63% 29.89 in 10.0 mi SSW 16.1 mph - N/A   Clear
7:53 PM 61.0 °F 52.0 °F 72% 29.90 in 10.0 mi SW 12.7 mph - N/A   Clear
8:53 PM 62.1 °F 53.1 °F 72% 29.91 in 10.0 mi SSW 12.7 mph - N/A   Clear
9:53 PM 59.0 °F 52.0 °F 78% 29.93 in 10.0 mi Calm Calm - N/A   Clear
10:53 PM 57.0 °F 53.1 °F 87% 29.93 in 10.0 mi Calm Calm - N/A   Partly Cloudy
11:53 PM 55.0 °F 52.0 °F 89% 29.93 in 10.0 mi NNE 4.6 mph - N/A   Partly Cloudy